Location: Ammerl�gen
(47.2167°N, 9.6000°E)
Time: 13:23:19
(UTC+00:00)

RS-15 - Pass Details

Date: 15 December 2021
Orbit: 1882 x 2162 km, 64.8° (Epoch: 22 January)

Event Time Altitude Azimuth Distance (km) Brightness Sun altitude
Exits shadow 00:38:56 29° 48° (NE) 3,306 9.3 -60.9°
Drops below altitude 10° 00:43:49 10° 40° (NE) 4,636 10.3 -60.4°
Sets 00:47:21 0° 38° (NE) 5,665 10.9 -60.0°
